Voltar ao catálogo

HAWK-13C

AtivoMilitarSSO
NORAD 67393·PAYLOAD·🇺🇸 United States

Lançado Jan 11, 2026 de Vandenberg Space Force Base

Loading…

Próximas Passagens (próximas 24 horas)

TLE

AtualizadoSource: Space-Track

Época: Sep 13, 2026, 23:11 UTC

1 67393U 26004AG  26256.96648768  .00003482  00000-0  16593-3 0  9999
2 67393  97.4640 255.1674 0006490  41.8739 318.2991 15.19765264 37246

Acompanhe HAWK-13C em tempo real com AllMySat

Download on the App Store